Notices

What's New in latest Release from April 7th, 2021:

- Updated Glossary, including Speed of Maximum Gust, and Total Hourly Precipitation

- Updated national and regional climate services offices contacts and prices information

- Addition of station inventory lists for 1981-2010, 1971-2000, and 1961-1990 Normals.

If you haven't already, please take our survey and provide feedback about our website: https://eccc.sondage-survey.ca/f/LanguageSelection.aspx?s=442ca660-fcf1-47c0-95a9-59707d6fd709

Hourly Data Report for May 06, 2020

TRENTON A
ONTARIO
Current Station Operator: DND

44°07'00.000" N
77°32'00.000" W
86.30 m
6158875
71621
YTR

Download Data

Hourly Data (May 2020)
Hourly Data Report for May 6, 2020
TIME
LST
Temp Definition
°C
Dew Point Definition
°C
Rel Hum Definition
%
Precip. Amount Definition
mm

Wind Dir Definition
10's deg

Wind Spd Definition
km/h
Visibility Definition
km
Stn Press Definition
kPa
Hmdx Definition


Wind Chill Definition


Weather Definition


00:00 1.0 -2.6 75     0 24.1 100.45     Mostly Cloudy
01:00 0.6 -2.7 77   3 4 24.1 100.44     Mostly Cloudy
02:00 1.1 -3.9 67   1 4 24.1 100.40     Mostly Cloudy
03:00 1.6 -4.7 60   35 4 24.1 100.40     Mostly Cloudy
04:00 1.0 -4.5 64     0 24.1 100.41     Mostly Cloudy
05:00 0.5 -4.0 69     0 24.1 100.39     Mostly Cloudy
06:00 2.6 -2.9 65   1 8 24.1 100.41     Mostly Cloudy
07:00 4.6 -3.0 56   4 11 24.1 100.38     Mostly Cloudy
08:00 6.2 -2.7 52   4 9 24.1 100.39     Cloudy
09:00 8.4 -2.7 44   6 8 24.1 100.37     Cloudy
10:00 10.0 -1.2 45   13 8 24.1 100.33     Cloudy
11:00 10.9 -1.3 42   13 11 24.1 100.29     Cloudy
12:00 11.6 -1.8 39   13 11 24.1 100.24     Cloudy
13:00 12.1 -1.8 37   12 13 24.1 100.20     Cloudy
14:00 12.7 -2.7 33   9 8 24.1 100.15     Mostly Cloudy
15:00 13.4 -2.8 32   13 13 24.1 100.07     Mostly Cloudy
16:00 11.4 0.1 46   20 21 24.1 100.05     Mostly Cloudy
17:00 10.5 -1.2 44   20 18 24.1 100.06     Mostly Cloudy
18:00 10.4 -1.2 44   20 15 24.1 100.05     Mostly Cloudy
19:00 9.5 0.7 54   20 11 24.1 100.07     Mainly Clear
20:00 9.0 -2.2 44   22 13 24.1 100.11     Mainly Clear
21:00 8.2 -3.0 44   22 11 24.1 100.11     Mainly Clear
22:00 8.2 -3.1 43   23 9 24.1 100.06     Mostly Cloudy
23:00 5.7 -2.7 53   22 5 24.1 100.01     Mostly Cloudy

Notes on Data Quality.

Legend

  • E = Estimated
  • M = Missing
  • NA = Not Available*
  • [empty] = Indicates an unobserved value
Date modified: